Flag for U.S.A. Weather past 2 weeks in Oberlin, Ohio, U.S.A.

Now
52 °F

Clear.


Feels Like: 52 °F
Forecast: 49 / 68 °F
Wind: No wind

Location: Lorain County Regional Airport

Current Time: Apr 18, 2015 at 3:48:08 AM

Latest Report: Apr 18, 2015 at 2:53 AM


Visibility: 10 mi

Pressure: 30.00 "Hg

Humidity: 72%

Dew point: 43 °F

Location of OberlinLocation

Historic Weather in Oberlin — Graph

°F

Oberlin temperature yesterday

Maximum temperature yesterday: 69 °F (at 5:53 PM)
Minimum temperature yesterday: 54 °F (at 12:53 AM)
Average temperature yesterday: 58 °F

Past Weeks' High & Low Weather Summary

 TemperatureHumidityPressure
High78 °F (Apr 13, 2:53 PM)100% (Apr 3, 2:53 AM)30.35 "Hg (Apr 3, 2:53 AM)
Low30 °F (Apr 4, 7:53 AM)26% (Apr 15, 2:53 PM)29.53 "Hg (Apr 10, 5:53 AM)
Average51 °F70%30.08 "Hg
* Reported Apr 3 2:53 AM — Apr 18 2:53 AM, Oberlin, Weather by CustomWeather, © 2015

Note: Actual official high and low records may vary slightly from our data, if they occured in-between our weather recording intervals... More about our weather records

Advertising

Oberlin weather history for previous 24 hours

 ConditionsComfort  
Time TempWeatherWind HumidityBarometerVisibility
2:53 AM
Sat, Apr 18
52 °FClear.No wind72%30.00 "Hg10 mi
1:53 AM53 °FClear.No wind72%30.01 "Hg10 mi
12:53 AM54 °FClear.5 mph77%30.03 "Hg10 mi
11:53 PM
Fri, Apr 17
55 °FClear.5 mph77%30.03 "Hg10 mi
10:53 PM55 °FClear.5 mph74%30.03 "Hg10 mi
9:53 PM55 °FClear.7 mph77%30.04 "Hg10 mi
8:53 PM58 °FSunny.3 mph70%30.03 "Hg10 mi
7:53 PM62 °FSunny.No wind60%30.03 "Hg10 mi
6:53 PM65 °FSunny.12 mph59%30.03 "Hg10 mi
5:53 PM69 °FSunny.5 mph47%30.02 "Hg10 mi
4:53 PM68 °FSunny.No wind45%30.03 "Hg10 mi
3:53 PM67 °FSunny.No wind59%30.04 "Hg10 mi
2:53 PM65 °FSunny.5 mph66%30.06 "Hg8 mi
1:53 PM62 °FPassing clouds.3 mph70%30.08 "Hg8 mi
12:53 PM61 °FMostly cloudy.3 mph75%30.10 "Hg6 mi
11:53 AM58 °FMostly cloudy.6 mph84%30.11 "Hg5 mi
10:53 AM56 °FFog.9 mph93%30.10 "Hg3 mi
9:53 AM55 °FFog.10 mph96%30.09 "Hg2 mi
8:53 AM56 °FFog.7 mph97%30.08 "Hg2 mi
8:04 AM56 °FFog.6 mph97%30.07 "Hg2 mi
7:53 AM55 °FFog.3 mph100%30.07 "Hg2 mi
7:03 AM54 °FFog.3 mph100%30.07 "Hg2 mi
6:53 AM54 °FFog.3 mph100%30.06 "Hg2 mi
5:53 AM56 °FFog.No wind97%30.05 "Hg4 mi
4:53 AM54 °FFog.5 mph100%30.06 "Hg5 mi
3:53 AM54 °FFog.3 mph100%30.05 "Hg5 mi
Weather by CustomWeather, © 2015

See weather overviewHow to use our weather pages